Location: Newark
(43.4306°N, 0.3089°E)
Time: 22:55:33
(UTC+00:00)

S-56A Canister/Altair - Pass Details

Date: 21 August 2019
Orbit: 633 x 2499 km, 38.9° (Epoch: 18 September)

Event Time Altitude Azimuth Distance (km) Brightness Sun altitude
Rises 03:18:46 0° 269° (W) 3,260 - -18.6°
Reaches altitude 10° 03:21:39 10° 251° (WSW) 2,526 - -18.2°
Maximum altitude 03:25:45 19° 207° (SSW) 2,246 - -17.6°
Exits shadow 03:26:34 19° 198° (SSW) 2,329 9.5 -17.5°
Drops below altitude 10° 03:30:55 10° 165° (SSE) 3,284 10.5 -16.8°
Sets 03:35:24 0° 150° (SSE) 4,643 11.5 -16.2°
